RYR17WR EDLV-LPPR

Flight info

Callsign RYR17WR
Flight time N/A
Altitude 24000
Route VEBAK4S VEBAK Z283 MODRU Z717 MAS/N0442F380 UM617 CIV/N0443F370 N872 MEDIL DCT KOVIN DCT NIDUV DCT KIHVI UN872 TERPO/N0438F350 UN872 ERIGA UZ218 FUJTI DCT ATLEN DCT INSID T326 ASPOR
Aircraft B38M/M-SDE1FGHILORVWXY/HB1

Departure

Time 2026-04-23 19:50
Airport Weeze (Niederrhein) Airport (EDLV)

Arrival

Time N/A
Airport Francisco de Sá Carneiro Airport (LPPR)
Time Latitude Longitude Altitude Speed Heading
2026-04-23 19:26 51.59960 6.14729 114 ft 0 kts 270°
2026-04-23 19:40 51.59960 6.14732 112 ft 2 kts 270°
2026-04-23 19:40 51.59962 6.14772 114 ft 4 kts 252°
2026-04-23 19:40 51.59974 6.14796 112 ft 3 kts 182°
2026-04-23 19:40 51.59997 6.14798 113 ft 4 kts 185°
2026-04-23 19:41 51.60022 6.14798 112 ft 4 kts 168°
2026-04-23 19:41 51.60042 6.14780 112 ft 4 kts 115°
2026-04-23 19:41 51.60046 6.14743 113 ft 2 kts 88°
2026-04-23 19:41 51.60046 6.14742 113 ft 1 kts 88°
2026-04-23 19:45 51.60046 6.14755 113 ft 4 kts 89°
2026-04-23 19:45 51.60046 6.14840 113 ft 12 kts 90°
2026-04-23 19:46 51.60040 6.15022 115 ft 15 kts 92°
2026-04-23 19:46 51.60035 6.15243 115 ft 24 kts 91°
2026-04-23 19:46 51.60029 6.15550 119 ft 24 kts 92°
2026-04-23 19:46 51.60024 6.15791 117 ft 22 kts 92°
2026-04-23 19:47 51.60046 6.15942 114 ft 6 kts 25°
2026-04-23 19:47 51.60106 6.15952 115 ft 0 kts
2026-04-23 19:47 51.60109 6.15952 117 ft 3 kts
2026-04-23 19:47 51.60170 6.15954 115 ft 14 kts
2026-04-23 19:48 51.60205 6.15931 117 ft 3 kts 297°
2026-04-23 19:48 51.60209 6.15881 116 ft 0 kts 271°
2026-04-23 19:49 51.60209 6.15878 114 ft 0 kts 271°
2026-04-23 19:49 51.60209 6.15870 113 ft 8 kts 272°
2026-04-23 19:49 51.60223 6.15283 116 ft 96 kts 272°
2026-04-23 19:50 51.60258 6.13789 128 ft 167 kts 273°
2026-04-23 19:50 51.60286 6.11788 714 ft 187 kts 272°
2026-04-23 19:50 51.60320 6.09653 1535 ft 192 kts 270°
2026-04-23 19:50 51.60231 6.07476 2321 ft 207 kts 264°
2026-04-23 19:51 51.59586 6.05156 2417 ft 250 kts 226°
2026-04-23 19:51 51.58185 6.03538 3037 ft 248 kts 218°
2026-04-23 19:51 51.56794 6.01823 3375 ft 258 kts 221°